NOVA 3

Last updated on Fri Jun 19 2026 20:04:44 GMT+0000 (Coordinated Universal Time)

1 15362U 84110A 26170.54526128 .00000054 00000+0 10882-3 0 9990 2 15362 90.1208 82.6703 0031675 165.4877 7.6652 13.23069572 11944
UTC large
Height (km)
Speed (km/s)
/
Latitude / Longitude
Inclination (degrees)
Orbital Period (minutes)
Azimuth
Elevation
Range (km)
Doppler Factor

Next 0 passes for location: London (51.5072 / 0.1276)

Sorry there are no passes over London.
NOVA 3